User: anonymous   Login
Location: Unspecified
(0.0000°N, 0.0000°E)
Time: 03:28:35
(UTC+00:00)
Language:

ARIANE 5 DEB (SYLDA) - Orbit

View from above orbital plane
View from above orbital plane
View from above satellite
View from above satellite

Ground track
Ground track

The orbit data is extracted from the following two-line orbital elements,

1 43177U 18012D   24140.22759084  .00008497  00000-0  69936-2 0  9995
2 43177  20.7890 183.5751 7142572 163.8369 243.8145  2.42079693 46216
Epoch (UTC): 19 May 2024 05:27:43
Eccentricity: 0.7142572
inclination: 20.7890°
perigee height: 316 km
apogee height: 33786 km
right ascension of ascending node: 183.5751°
argument of perigee: 163.8369°
revolutions per day: 2.42079693
mean anomaly at epoch: 243.8145°
orbit number at epoch: 4621

The dashed part of the orbit path shows where the satellite is in the earth's shadow,  

DLR